カタログに戻る

COSMOS 1691

運用中ナビゲーションPO
NORAD 16139·PAYLOAD·🇷🇺 Russia

打ち上げ Oct 9, 1985 から Plesetsk Cosmodrome

Loading…

次のパス (今後24時間)

TLE

最新Source: Space-Track

元期: Sep 14, 2026, 08:08 UTC

1 16139U 85094B   26257.33927244 -.00000001  00000-0 -64835-4 0  9995
2 16139  82.6087 233.2497 0001263  66.9649  96.5976 12.62477204886486

AllMySatでCOSMOS 1691をリアルタイム追跡

Download on the App Store